TITAN 3C TRANSTAGE DEB, 19592

Orbit data source: Space-Track

TITAN 3C TRANSTAGE DEB, 19592 is space debris in HEO originally from a launch on Tue, 21 Dec 1965 UTC launched from the Air Force Eastern Test Range (AFETR). Debris objects in space refer to the collection of defunct objects orbiting the Earth. Examples of debris include non-operational satellites, rocket bodies, and fragments generated from explosions, collisions, or faulty payload assembly.

Loading next visibility...
Identifier
19592, 1965-108AA
Orbit
HEO
Last TLE update
1 day ago
Origin
Manufacturer
Unknown
Mission
Spacecraft
Bus & Motor
Unknown
Mass
Unknown
Launch date (UTC)
1965-12-21 (60 years ago)
Launch vehicle
Unknown
Launch site
Air Force Eastern Test Range (AFETR)
Object type
Payload
Rocket body
Debris
Shape & HBR
Unknown
Radar Cross Section
Medium (>0.1 m² and <1 m²)

Expand to show TLE details & history

TLE from 1 day ago
0 TITAN 3C TRANSTAGE DEB
1 19592U 65108AA  25187.48395372 -.00000267  00000-0 -13148-2 0  9996
2 19592  26.9489 349.8359 6709926 357.0807   5.2362  2.84016390335514
Epoch: 2025-07-06T11:36Z
TLE epoch observation values (Epoch: 2025-07-06T11:36:53.601Z)
Latitude
13.83458°
Longitude
-80.29873°
Altitude
1,097.402 km
Speed
9.366 km/s
True Right ascension
01h 14m 31s
True Declination
13° 45' 31"
Sunlit
Object was in daylight at epoch
Visualization orbit readout
Latitude
-19.30448°
Longitude
113.74538°
Altitude
14,433.655 km
Speed
4.403 km/s
Apparent Right ascension
15h 06m 39s
Apparent Declination
-28° 21' 37"
Sunlit
Object is in daylight
Visualization observer readout
Local Sidereal Time
08:09:53
Azimuth
104.83° ESE
Elevation
-28.053°
Doppler factor
1
Orbital elements
Apogee altitude
28,822.8 km
Perigee altitude
552.695 km
Semi-major axis
21,065.884 km
Eccentricity
0.67099
Inclination
26.9489°
RAAN
349.8359°
Arg. of periapsis
357.0807°
True anomaly
Unknown
Mean anomaly
5.2362°
Eccentric anomaly
Unknown
Mean motion
0.70986 °/min
Orbital period
507.14 mins
BSTAR
-0.0013148
Loading maneuver chart data...
Loading SW <> Apogee altitude chart data...

TITAN 3C TRANSTAGE DEB Visibility forecast

Observer location: undefined°, undefined°

Span
Click to sort rows by Start time (UTC) header in descending order
Start Az.
Max El. time (UTC)
Max El. Az.
Max El.
End time (UTC)
End Az.
360 mins2025-07-07 21:52:11.882Z273.831° WNW2025-07-07 23:04:11.882Z235.747° WSW34.655°2025-07-08 03:52:11.882Z226.327° WSW
63 mins2025-07-08 14:22:11.882Z194.834° SSW2025-07-08 14:28:11.882Z141.425° SSE31.403°2025-07-08 15:25:11.882Z86.153° E
|